OPS 4682 DEB, 51508

Orbit data source: Space-Track

OPS 4682 DEB, 51508 is space debris in LEO originally from a launch on Sat, 03 Apr 1965 UTC launched from the Air Force Western Test Range (AFWTR). Debris objects in space refer to the collection of defunct objects orbiting the Earth. Examples of debris include non-operational satellites, rocket bodies, and fragments generated from explosions, collisions, or faulty payload assembly.

Loading next visibility...
Identifier
51508, 1965-027GU
Orbit
LEO
Country
Flag of USUS
Related business
Manufacturer
Unknown
Mission
Spacecraft
Bus & Motor
Unknown
Mass
Unknown
Launch date (UTC)
1965-04-03 (61 years ago)
Launch vehicle
Unknown
Launch site
Air Force Western Test Range (AFWTR)
Object type
Payload
Rocket body
Debris
Shape & HBR
Unknown shape, 1.1 m
Radar Cross Section
Medium (>0.1 m² and <1 m²)

Expand to show TLE details & history
Last TLE update: 1 week ago

TLE from 1 week ago
0 OPS 4682 DEB
1 51508U 65027GU  26213.21823399 -.00000340  00000-0 -11880-2 0  9999
2 51508  90.2544  17.2381 0025334 293.6005 243.0236 12.97971035610033
Epoch: 2026-08-01T05:14Z
TLE epoch observation values (Epoch: 2026-08-01T05:14:15.416Z)
Latitude
3.5428°
Longitude
168.85634°
Altitude
1,281.368 km
Speed
7.211 km/s
True Right ascension
13h 09m 00s
True Declination
3° 31' 23"
Sunlit
Object was in daylight at epoch
Visualization orbit readout
Latitude
Unknown
Longitude
Unknown
Altitude
Unknown
Speed
Unknown
Apparent Right ascension
Unknown
Apparent Declination
Unknown
Sunlit
N/A
Visualization observer readout
Local Sidereal Time
21:01:41
Azimuth
Unknown
Elevation
Unknown
Doppler factor
Unknown
Orbital elements
Apogee altitude
1,286.545 km
Perigee altitude
1,247.808 km
Semi-major axis
7,645.314 km
Eccentricity
0.00253
Inclination
90.2544°
RAAN
17.2381°
Arg. of periapsis
293.6005°
True anomaly
242.76525°
Mean anomaly
243.0236°
Eccentric anomaly
242.89439°
Mean motion
3.24676 °/min
Orbital period
110.88 mins
BSTAR
-0.001188
Loading maneuver chart data...
Computing Atmospheric mass density...
Loading historical data...
Loading historical data...
Loading historical data...
Loading historical data...
Loading historical data...
Loading historical data...
Loading historical data...

Documentation

Showing up to 5 results
|